Погода в Клесове

Украина / Ровненская область     51°18′57″N   26°53′41″E
темп.,
°C
ветер,
м/с
пор.,
м/с
влажн.,
%
обл.,
%
осадки,
мм/ч
давл.,
гПа
погр.,
м
27 ноября, сб
сб2723:00+5юв61481100 0.0 997924
02:00+6юв61487100 1.8 9931253
05:00+6ю4994100 0.9 991622
08:00+6юз41087100 1.3 9921097
11:00+7юз6127879 0.1 9941020
14:00+5зюз71171100 0.1 9961129
17:00+4зюз5117384 0.0 999879
20:00+2зюз398455 0.0 1001411
28 ноября, вс
вс2823:00+1юз25905 0.0 1002112
02:000ю239281 0.0 100355
05:00+2ю2787100 0.0 1002190
08:00+3юв2488100 0.1 100298
11:00+5юв2582100 0.2 1002185
14:00+6вюв2679100 0.2 1000330
17:00+5вюв3889100 0.3 999257
20:00+6ююв3886100 0.3 998239
29 ноября, пн
пн2923:00+4ююв3792100 0.0 997127
02:00+4юв3890100 0.0 995147
05:00+5юв31093100 0.0 992221
08:00+6ююв31097100 0.0 990416
11:00+8ююз3893100 0.1 988581
14:00+2з71495100 0.7 990641
17:00+2з71279100 0.1 9911067
20:00+2зюз71482100 0.1 9931417
30 ноября, вт
вт3023:00+1зюз81692100 0.2 9931403
02:00+2зюз91777100 0.3 9941460
05:00+1зюз9177987 0.0 9951248
08:00+1з91781100 0.1 9971443
11:00+2з8137190 0.1 10001277
14:00+2з7136867 0.1 10011319
17:00−1з6117163 0.0 1002933
20:00−1зюз5118277 0.0 1002870
1 декабря, ср
ср123:00−1зюз4108198 0.0 1002671
02:00−1юз4117993 0.0 1001738
05:00−1юз41195100 0.8 1000656
08:00−1юз3997100 1.3 1000499
11:00+1з2599100 0.9 1002181
14:00+1з4795100 1.1 1002764
17:00+1зюз3998100 0.4 1003663
20:00+1юз499299 0.6 1003552